Location: Newark
(41.7563°N, 42.8282°E)
Time: 03:14:26
(UTC+00:00)

Envisat - Visible Passes

Search period start: 17 October 2019 00:00
Search period end: 27 October 2019 00:00
Orbit: 764 x 766 km, 98.1° (Epoch: 16 October)

Date Brightness Start Highest point End Pass type
(mag) Time Alt. Az. Time Alt. Az. Time Alt. Az.
17 Oct 4.9 16:01:31 10° SSW 16:06:01 32° W 16:10:33 10° NNW visible
18 Oct 3.3 15:24:04 10° S 15:29:07 71° WSW 15:34:12 10° NNW visible
19 Oct 3.1 14:47:30 10° SSE 14:52:24 53° ENE 14:57:21 10° N visible
19 Oct 5.7 16:28:16 10° SW 16:31:44 18° W 16:35:13 10° NW visible
20 Oct 6.1 02:57:10 10° NE 03:00:35 18° E 03:03:58 10° SE visible
20 Oct 4.4 15:49:57 10° SSW 15:54:41 40° W 15:59:29 10° NNW visible
21 Oct 3.0 15:12:46 10° SSE 15:17:51 89° WSW 15:22:58 10° NNW visible
22 Oct 5.4 16:16:23 10° SW 16:20:22 23° W 16:24:23 10° NW visible
23 Oct 6.3 02:46:35 10° ENE 02:49:11 14° E 02:51:47 10° ESE visible
23 Oct 3.9 15:38:28 10° S 15:43:22 51° W 15:48:21 10° NNW visible
24 Oct 2.9 15:01:33 10° SSE 15:06:36 73° ENE 15:11:41 10° N visible
24 Oct 6.1 16:43:50 10° WSW 16:46:08 13° W 16:48:28 10° WNW visible
25 Oct 5.0 16:04:38 10° SSW 16:09:01 29° W 16:13:25 10° NW visible
26 Oct 6.7 02:36:40 10° ENE 02:37:47 11° E 02:38:54 10° E visible
26 Oct 3.4 15:27:04 10° S 15:32:06 65° W 15:37:09 10° NNW visible
